Regional Weather Roundup
Issued by NWS Jackson, KY

Home | Current Version | Previous Version | Graphics & Text | Print | Product List | Glossary On
Versions: 1 2 3 4 5 6 7 8 9 10 11 12 13 14 15 16 17 18 19 20 21 22 23 24 25 26 27
000
ASUS43 KJKL 221910
RWRJKL

EAST KENTUCKY HOURLY WEATHER ROUNDUP
NATIONAL WEATHER SERVICE JACKSON KY
300 PM EDT FRI SEP 22 2017

NOTE: "FAIR" INDICATES FEW OR NO CLOUDS BELOW 12,000 FEET WITH
NO SIGNIFICANT WEATHER AND/OR OBSTRUCTIONS TO VISIBILITY.

* THESE REPORTS ARE NOT UNDER NWS QUALITY CONTROL AND MAY NOT
  REPORT WEATHER SUCH AS PRECIPITATION AND FOG.

KYZ079-080-083-085-087-088-110-112-115-119-120-222000
...EASTERN KENTUCKY...

CITY           SKY/WX    TMP DP  RH WIND       PRES   REMARKS
JACKSON        MOSUNNY   84  66  54 CALM      30.11F
LONDON         MOSUNNY   86  64  47 NE9       30.09F
SOMERSET*      PTSUNNY   86  63  45 CALM      30.08F
MONTICELLO*    MOSUNNY   84  66  54 VRB7      30.09F
WILLIAMSBURG*  CLEAR     86  66  51 SE5       30.08F
MIDDLESBORO*   SUNNY     86  65  48 CALM      30.08F
HARLAN APT*    MOCLDY    81  64  57 CALM      30.10F
PIKE CO APT*     N/A     82  64  54 N5        30.11F
BIG SANDY APT* CLEAR     83  64  52 N9        30.11F
MOREHEAD APT*  PTCLDY    84  61  45 NE7       30.11F
$$

KYZ035-036-041-042-044-050-067-078-099-222000
...CENTRAL KENTUCKY...

CITY           SKY/WX    TMP DP  RH WIND       PRES   REMARKS
MT STERLING*   MOSUNNY   84  63  48 N3        30.11F
FLEMING/MASON* SUNNY     84  64  50 SE5       30.10F
DANVILLE*      MOSUNNY   82  64  54 CALM      30.09F
LEXINGTON      MOSUNNY   87  67  51 NE8       30.09F HX  90
FRANKFORT      SUNNY     89  63  41 E7        30.07F HX  90
LOUISVILLE     MOSUNNY   90  67  46 SE9       30.05F HX  93
LEBANON*         N/A     86  64  48 E5        30.08F
GLASGOW*       MOSUNNY   89  65  45 SE3       30.05F HX  90
BOWLING GREEN  MOSUNNY   89  68  49 NE7       30.04F HX  93
$$

KYZ091>093-OHZ055-061-077-WVZ005-015-034-035-042-222000
...SOUTHERN OHIO/WEST VIRGINIA...

CITY           SKY/WX    TMP DP  RH WIND       PRES   REMARKS
COVINGTON      MOSUNNY   88  69  53 SE7       30.08F HX  92
COLUMBUS       MOSUNNY   88  65  46 VRB5      30.08F HX  90
DAYTON         MOSUNNY   89  65  44 CALM      30.10F HX  91
WILMINGTON     MOSUNNY   87  66  49 VRB3      30.09F
HUNTINGTON     MOSUNNY   84  64  50 NE7       30.09F
CHARLESTON     MOSUNNY   86  63  45 VRB3      30.09F
PINEVILLE*     MOSUNNY   84  64  49 MISG      30.16S
BECKLEY        MOSUNNY   80  63  55 N10       30.15F
BLUEFIELD      MOSUNNY   77  57  50 N3        30.17F
LOGAN CO APT*    N/A     82  66  57 VRB5      30.12F
$$

VAZ002-007-008-TNZ017-027-036-066-071-222000
...SOUTHWEST VIRGINIA/EAST TENNESSEE...

CITY           SKY/WX    TMP DP  RH WIND       PRES   REMARKS
WISE*          SUNNY     81  54  39 N8        30.18S
JONESVILLE*      N/A     86  63  45 CALM      30.11S
ABINGDON*      MOSUNNY   83  62  48 N3        30.12F
BRISTOL        PTSUNNY   87  62  43 VRB3      30.09F
MORRISTOWN*    PTCLDY    86  63  45 CALM      30.06F
SEVIERVILLE*   CLEAR     88  57  35 NE8       30.05S
KNOXVILLE      PTSUNNY   87  64  46 NW8       30.05F
LAFOLLETTE*    CLEAR     86  66  51 E6        30.10F
OAK RIDGE      MOSUNNY   88  63  43 W3        30.07F
CROSSVILLE     PTSUNNY   84  63  49 NE3       30.11F
NASHVILLE      MOSUNNY   88  63  43 S3        30.04F
$$

...KEY TO REMARKS...
VSB - VISIBILITY IN MILES
WCI - WIND CHILL INDEX
HX  - HEAT INDEX

$$




USA.gov is the U.S. government's official web portal to all federal, state and local government web resources and services.